| time (UTC) | temp F | wind direction | speed MPH | gust MPH | rain 1hr in | rain 24hr in | rain mn in | humidity % | barometer mb |
| 20260506163103 | 60 | 96 | 6.0 | 9.0 | 0.00 | 0.00 | 0.00 | 67 | 1016.6 |
| 20260506162603 | 60 | 92 | 7.0 | 9.0 | 0.00 | 0.00 | 0.00 | 67 | 1016.6 |
| 20260506162103 | 59 | 94 | 7.0 | 10.0 | 0.00 | 0.00 | 0.00 | 66 | 1016.7 |
| 20260506161603 | 59 | 91 | 7.0 | 10.0 | 0.00 | 0.00 | 0.00 | 67 | 1016.8 |
| 20260506161104 | 59 | 93 | 6.0 | 9.0 | 0.00 | 0.00 | 0.00 | 68 | 1016.5 |
| 20260506155603 | 58 | 95 | 5.0 | 7.0 | 0.00 | 0.00 | 0.00 | 69 | 1016.3 |
| 20260506155103 | 58 | 96 | 5.0 | 6.0 | 0.00 | 0.00 | 0.00 | 68 | 1016.4 |
| 20260506154603 | 58 | 103 | 5.0 | 7.0 | 0.00 | 0.00 | 0.00 | 69 | 1016.4 |
| 20260506154103 | 58 | 102 | 5.0 | 7.0 | 0.00 | 0.00 | 0.00 | 68 | 1016.4 |
| 20260506153603 | 57 | 86 | 6.0 | 7.0 | 0.00 | 0.00 | 0.00 | 68 | 1016.4 |
| 20260506152603 | 57 | 87 | 5.0 | 6.0 | 0.00 | 0.00 | 0.00 | 69 | 1016.6 |
| 20260506152103 | 57 | 86 | 5.0 | 6.0 | 0.00 | 0.00 | 0.00 | 67 | 1016.6 |
| 20260506151603 | 56 | 93 | 3.0 | 5.0 | 0.00 | 0.00 | 0.00 | 66 | 1016.6 |
| 20260506151103 | 56 | 93 | 5.0 | 6.0 | 0.00 | 0.00 | 0.00 | 66 | 1016.4 |
| 20260506150603 | 56 | 95 | 3.0 | 6.0 | 0.00 | 0.00 | 0.00 | 68 | 1016.3 |
| 20260506145603 | 56 | 115 | 3.0 | 3.0 | 0.00 | 0.00 | 0.00 | 67 | 1016.4 |
| 20260506145102 | 55 | 115 | 3.0 | 3.0 | 0.00 | 0.00 | 0.00 | 67 | 1016.7 |
| 20260506144103 | 54 | 115 | 3.0 | 3.0 | 0.00 | 0.00 | 0.00 | 69 | 1016.7 |
| 20260506143603 | 54 | 115 | 3.0 | 3.0 | 0.00 | 0.00 | 0.00 | 69 | 1016.7 |
| 20260506142603 | 53 | 115 | 3.0 | 5.0 | 0.00 | 0.00 | 0.00 | 68 | 1017.0 |
| 20260506142102 | 53 | 116 | 3.0 | 3.0 | 0.00 | 0.00 | 0.00 | 71 | 1017.0 |
| 20260506141603 | 52 | 116 | 3.0 | 3.0 | 0.00 | 0.00 | 0.00 | 69 | 1017.1 |
| 20260506140602 | 51 | 116 | 2.0 | 3.0 | 0.00 | 0.00 | 0.00 | 73 | 1016.5 |
| 20260506135602 | 50 | 116 | 2.0 | 3.0 | 0.00 | 0.00 | 0.00 | 71 | 1016.7 |
| 20260506135102 | 49 | 116 | 2.0 | 3.0 | 0.00 | 0.00 | 0.00 | 73 | 1016.7 |
| 20260506134602 | 48 | 116 | 2.0 | 3.0 | 0.00 | 0.00 | 0.00 | 73 | 1017.0 |
| 20260506134103 | 48 | 115 | 2.0 | 3.0 | 0.00 | 0.00 | 0.00 | 73 | 1016.9 |
| 20260506133603 | 47 | 116 | 3.0 | 3.0 | 0.00 | 0.00 | 0.00 | 73 | 1016.9 |
| 20260506132603 | 47 | 116 | 2.0 | 3.0 | 0.00 | 0.00 | 0.00 | 70 | 1016.8 |
| 20260506132102 | 46 | 116 | 3.0 | 3.0 | 0.00 | 0.00 | 0.00 | 69 | 1017.0 |
| 20260506131103 | 46 | 116 | 2.0 | 3.0 | 0.00 | 0.00 | 0.00 | 70 | 1016.9 |
| 20260506130603 | 46 | 116 | 3.0 | 3.0 | 0.00 | 0.00 | 0.00 | 69 | 1016.7 |
| 20260506125103 | 46 | 116 | 1.0 | 3.0 | 0.00 | 0.00 | 0.00 | 69 | 1016.7 |
| 20260506124603 | 45 | 116 | 3.0 | 3.0 | 0.00 | 0.00 | 0.00 | 69 | 1016.7 |
| 20260506124102 | 45 | 116 | 2.0 | 3.0 | 0.00 | 0.00 | 0.00 | 70 | 1016.6 |
| 20260506123603 | 44 | 116 | 3.0 | 3.0 | 0.00 | 0.00 | 0.00 | 70 | 1016.8 |
| 20260506123103 | 44 | 116 | 3.0 | 5.0 | 0.00 | 0.00 | 0.00 | 72 | 1016.8 |
| 20260506122603 | 44 | 116 | 2.0 | 3.0 | 0.00 | 0.00 | 0.00 | 72 | 1016.8 |
| 20260506122103 | 44 | 116 | 3.0 | 3.0 | 0.00 | 0.00 | 0.00 | 72 | 1016.7 |
| 20260506121104 | 44 | 116 | 1.0 | 2.0 | 0.00 | 0.00 | 0.00 | 72 | 1016.7 |
| 20260506120603 | 44 | 116 | 1.0 | 2.0 | 0.00 | 0.00 | 0.00 | 72 | 1016.5 |
| 20260506115603 | 44 | 116 | 2.0 | 3.0 | 0.00 | 0.00 | 0.00 | 71 | 1016.4 |
| 20260506115103 | 44 | 116 | 1.0 | 2.0 | 0.00 | 0.00 | 0.00 | 71 | 1016.0 |
| 20260506114103 | 46 | 116 | 1.0 | 2.0 | 0.00 | 0.00 | 0.00 | 69 | 1016.2 |
| 20260506113103 | 46 | 115 | 4.0 | 5.0 | 0.00 | 0.00 | 0.00 | 69 | 1016.2 |
| 20260506112603 | 46 | 115 | 5.0 | 5.0 | 0.00 | 0.00 | 0.00 | 69 | 1016.2 |
| 20260506111103 | 45 | 115 | 5.0 | 5.0 | 0.00 | 0.00 | 0.00 | 71 | 1016.3 |
| 20260506110603 | 45 | 115 | 5.0 | 6.0 | 0.00 | 0.00 | 0.00 | 70 | 1016.5 |
| 20260506105603 | 46 | 117 | 6.0 | 7.0 | 0.00 | 0.00 | 0.00 | 69 | 1016.4 |
| 20260506104603 | 45 | 123 | 3.0 | 5.0 | 0.00 | 0.00 | 0.00 | 71 | 1016.4 |
| 20260506104103 | 45 | 176 | 2.0 | 3.0 | 0.00 | 0.00 | 0.00 | 70 | 1016.4 |
| 20260506103602 | 45 | 176 | 2.0 | 5.0 | 0.00 | 0.00 | 0.00 | 71 | 1016.4 |
| 20260506103104 | 44 | 185 | 4.0 | 5.0 | 0.00 | 0.00 | 0.00 | 72 | 1016.6 |
| 20260506102603 | 44 | 195 | 3.0 | 5.0 | 0.00 | 0.00 | 0.00 | 72 | 1016.4 |
| 20260506102103 | 44 | 195 | 3.0 | 3.0 | 0.00 | 0.00 | 0.00 | 72 | 1016.5 |
| 20260506101603 | 44 | 222 | 2.0 | 3.0 | 0.00 | 0.00 | 0.00 | 74 | 1016.5 |
| 20260506101103 | 44 | 223 | 1.0 | 2.0 | 0.00 | 0.00 | 0.00 | 74 | 1016.4 |
| 20260506100603 | 44 | 223 | 2.0 | 3.0 | 0.00 | 0.00 | 0.00 | 74 | 1016.2 |
| 20260506095602 | 44 | 223 | 0.0 | 0.0 | 0.00 | 0.00 | 0.00 | 75 | 1016.1 |
| 20260506095102 | 43 | 223 | 0.0 | 1.0 | 0.00 | 0.00 | 0.00 | 75 | 1016.1 |
| 20260506094603 | 44 | 224 | 2.0 | 3.0 | 0.00 | 0.00 | 0.00 | 75 | 1016.2 |
| 20260506094103 | 45 | 224 | 2.0 | 3.0 | 0.00 | 0.00 | 0.00 | 72 | 1015.9 |
| 20260506093603 | 45 | 224 | 1.0 | 2.0 | 0.00 | 0.00 | 0.00 | 72 | 1015.9 |
| 20260506093103 | 46 | 223 | 2.0 | 3.0 | 0.00 | 0.00 | 0.00 | 70 | 1015.8 |
| 20260506092603 | 46 | 223 | 1.0 | 2.0 | 0.00 | 0.00 | 0.00 | 69 | 1015.8 |
| 20260506092103 | 46 | 224 | 1.0 | 3.0 | 0.00 | 0.00 | 0.00 | 69 | 1015.8 |
| 20260506091603 | 47 | 223 | 0.0 | 3.0 | 0.00 | 0.00 | 0.00 | 69 | 1015.5 |
| 20260506091102 | 47 | 223 | 0.0 | 0.0 | 0.00 | 0.00 | 0.00 | 68 | 1015.4 |
| 20260506090603 | 49 | 224 | 1.0 | 2.0 | 0.00 | 0.00 | 0.00 | 65 | 1015.3 |
| 20260506090103 | 49 | 224 | 1.0 | 2.0 | 0.00 | 0.00 | 0.00 | 63 | 1015.0 |
| 20260506085603 | 49 | 223 | 1.0 | 2.0 | 0.00 | 0.00 | 0.00 | 63 | 1015.3 |
| 20260506085103 | 49 | 224 | 1.0 | 2.0 | 0.00 | 0.00 | 0.00 | 63 | 1015.4 |
| 20260506084602 | 50 | 224 | 1.0 | 2.0 | 0.00 | 0.00 | 0.00 | 61 | 1015.2 |
| 20260506084103 | 50 | 224 | 2.0 | 2.0 | 0.00 | 0.00 | 0.00 | 62 | 1015.2 |
| 20260506083603 | 50 | 226 | 1.0 | 3.0 | 0.00 | 0.00 | 0.00 | 62 | 1015.2 |
| 20260506083103 | 50 | 228 | 0.0 | 2.0 | 0.00 | 0.00 | 0.00 | 62 | 1015.1 |
| 20260506081603 | 49 | 228 | 1.0 | 3.0 | 0.00 | 0.00 | 0.00 | 64 | 1015.3 |
| 20260506081103 | 48 | 229 | 1.0 | 2.0 | 0.00 | 0.00 | 0.00 | 66 | 1015.3 |
| 20260506080603 | 47 | 229 | 0.0 | 0.0 | 0.00 | 0.00 | 0.00 | 67 | 1015.5 |
| 20260506073103 | 45 | 229 | 3.0 | 3.0 | 0.00 | 0.00 | 0.00 | 77 | 1015.7 |
| 20260506072603 | 45 | 228 | 3.0 | 3.0 | 0.00 | 0.00 | 0.00 | 75 | 1015.6 |
| 20260506072103 | 46 | 247 | 2.0 | 3.0 | 0.00 | 0.00 | 0.00 | 73 | 1015.5 |
| 20260506071103 | 47 | 247 | 1.0 | 2.0 | 0.00 | 0.00 | 0.00 | 72 | 1015.5 |
| 20260506070603 | 47 | 247 | 1.0 | 2.0 | 0.00 | 0.00 | 0.00 | 71 | 1015.8 |
| 20260506070103 | 48 | 247 | 2.0 | 2.0 | 0.00 | 0.00 | 0.00 | 70 | 1015.8 |
| 20260506062103 | 48 | 247 | 1.0 | 3.0 | 0.00 | 0.00 | 0.00 | 70 | 1015.3 |
| 20260506061603 | 47 | 247 | 2.0 | 3.0 | 0.00 | 0.00 | 0.00 | 71 | 1015.2 |
| 20260506060603 | 47 | 247 | 2.0 | 3.0 | 0.00 | 0.00 | 0.00 | 75 | 1015.7 |
| 20260506051103 | 53 | 296 | 0.0 | 0.0 | 0.00 | 0.00 | 0.00 | 55 | 1014.9 |
| 20260506050602 | 54 | 296 | 0.0 | 0.0 | 0.00 | 0.00 | 0.00 | 57 | 1015.2 |
| 20260506050103 | 55 | 296 | 0.0 | 0.0 | 0.00 | 0.00 | 0.00 | 56 | 1014.9 |
| 20260506045103 | 55 | 296 | 0.0 | 0.0 | 0.00 | 0.00 | 0.00 | 52 | 1014.7 |
| 20260506044603 | 55 | 296 | 0.0 | 1.0 | 0.00 | 0.00 | 0.00 | 52 | 1014.7 |
| 20260506044103 | 54 | 296 | 1.0 | 1.0 | 0.00 | 0.00 | 0.00 | 53 | 1014.9 |
| 20260506043603 | 53 | 296 | 0.0 | 2.0 | 0.00 | 0.00 | 0.00 | 55 | 1014.9 |
| 20260506043103 | 54 | 296 | 0.0 | 2.0 | 0.00 | 0.00 | 0.00 | 58 | 1015.0 |
| 20260506042603 | 55 | 296 | 1.0 | 2.0 | 0.00 | 0.00 | 0.00 | 55 | 1014.7 |
| 20260506042103 | 56 | 296 | 0.0 | 1.0 | 0.00 | 0.00 | 0.00 | 56 | 1014.6 |
| 20260506041603 | 57 | 296 | 1.0 | 2.0 | 0.00 | 0.00 | 0.00 | 51 | 1014.4 |
| 20260506040603 | 58 | 297 | 2.0 | 3.0 | 0.00 | 0.00 | 0.00 | 48 | 1014.4 |
| 20260506040104 | 58 | 297 | 1.0 | 3.0 | 0.00 | 0.00 | 0.00 | 48 | 1014.4 |
| 20260506035603 | 58 | 297 | 3.0 | 5.0 | 0.00 | 0.00 | 0.00 | 47 | 1014.4 |
| 20260506035104 | 59 | 299 | 3.0 | 5.0 | 0.00 | 0.00 | 0.00 | 47 | 1014.3 |
| 20260506034603 | 59 | 289 | 3.0 | 5.0 | 0.00 | 0.00 | 0.00 | 47 | 1014.2 |
| 20260506034104 | 59 | 284 | 3.0 | 6.0 | 0.00 | 0.00 | 0.00 | 48 | 1014.2 |
| 20260506033603 | 58 | 291 | 3.0 | 5.0 | 0.00 | 0.00 | 0.00 | 49 | 1014.2 |
| 20260506032603 | 59 | 293 | 3.0 | 6.0 | 0.00 | 0.00 | 0.00 | 50 | 1014.0 |
| 20260506032103 | 59 | 293 | 1.0 | 6.0 | 0.00 | 0.00 | 0.00 | 50 | 1014.0 |
| 20260506031603 | 59 | 286 | 3.0 | 5.0 | 0.00 | 0.00 | 0.00 | 50 | 1013.9 |
| 20260506031103 | 59 | 290 | 1.0 | 3.0 | 0.00 | 0.00 | 0.00 | 51 | 1013.7 |
| 20260506030603 | 60 | 290 | 3.0 | 5.0 | 0.00 | 0.00 | 0.00 | 50 | 1014.0 |
| 20260506030103 | 60 | 293 | 2.0 | 3.0 | 0.00 | 0.00 | 0.00 | 50 | 1013.9 |
| 20260506025602 | 61 | 294 | 1.0 | 3.0 | 0.00 | 0.00 | 0.00 | 49 | 1013.6 |
| 20260506025103 | 61 | 335 | 1.0 | 3.0 | 0.00 | 0.00 | 0.00 | 48 | 1013.7 |
| 20260506024603 | 62 | 336 | 1.0 | 3.0 | 0.00 | 0.00 | 0.00 | 47 | 1013.7 |
| 20260506024103 | 62 | 328 | 2.0 | 3.0 | 0.00 | 0.00 | 0.00 | 47 | 1013.6 |
| 20260506023603 | 63 | 324 | 2.0 | 5.0 | 0.00 | 0.00 | 0.00 | 47 | 1013.4 |
| 20260506023103 | 63 | 307 | 2.0 | 3.0 | 0.00 | 0.00 | 0.00 | 47 | 1013.3 |
| 20260506022103 | 64 | 314 | 2.0 | 7.0 | 0.00 | 0.00 | 0.00 | 46 | 1013.3 |
| 20260506021103 | 65 | 336 | 3.0 | 6.0 | 0.00 | 0.00 | 0.00 | 44 | 1013.1 |
| 20260506020603 | 65 | 315 | 3.0 | 10.0 | 0.00 | 0.00 | 0.00 | 45 | 1013.2 |
| 20260506020104 | 65 | 311 | 3.0 | 7.0 | 0.00 | 0.00 | 0.00 | 45 | 1013.2 |
| 20260506015603 | 65 | 326 | 2.0 | 3.0 | 0.00 | 0.00 | 0.00 | 46 | 1013.2 |
| 20260506015103 | 65 | 305 | 2.0 | 6.0 | 0.00 | 0.00 | 0.00 | 45 | 1013.1 |
| 20260506014603 | 65 | 341 | 2.0 | 7.0 | 0.00 | 0.00 | 0.00 | 44 | 1013.1 |
| 20260506014103 | 65 | 336 | 3.0 | 7.0 | 0.00 | 0.00 | 0.00 | 45 | 1013.1 |
| 20260506013603 | 66 | 316 | 3.0 | 6.0 | 0.00 | 0.00 | 0.00 | 45 | 1013.1 |
| 20260506012603 | 67 | 292 | 3.0 | 12.0 | 0.00 | 0.00 | 0.00 | 45 | 1012.8 |
| 20260506011603 | 67 | 303 | 3.0 | 9.0 | 0.00 | 0.00 | 0.00 | 44 | 1012.8 |
| 20260506011104 | 67 | 316 | 3.0 | 12.0 | 0.00 | 0.00 | 0.00 | 42 | 1012.9 |
| 20260506010103 | 68 | 316 | 6.0 | 12.0 | 0.00 | 0.00 | 0.00 | 42 | 1013.1 |
| 20260506005605 | 68 | 319 | 5.0 | 12.0 | 0.00 | 0.00 | 0.00 | 42 | 1013.0 |
| 20260506005103 | 68 | 321 | 5.0 | 12.0 | 0.00 | 0.00 | 0.00 | 42 | 1012.9 |
| 20260506004603 | 68 | 321 | 4.0 | 12.0 | 0.00 | 0.00 | 0.00 | 42 | 1012.9 |
| 20260506003603 | 69 | 350 | 3.0 | 9.0 | 0.00 | 0.00 | 0.00 | 44 | 1012.8 |
| 20260506003104 | 69 | 340 | 5.0 | 14.0 | 0.00 | 0.00 | 0.00 | 43 | 1012.8 |
| 20260506002603 | 69 | 315 | 5.0 | 12.0 | 0.00 | 0.00 | 0.00 | 42 | 1012.8 |
| 20260506001603 | 69 | 343 | 3.0 | 13.0 | 0.00 | 0.00 | 0.00 | 42 | 1012.7 |
| 20260506001103 | 69 | 326 | 5.0 | 12.0 | 0.00 | 0.00 | 0.00 | 41 | 1012.8 |
| 20260506000603 | 69 | 309 | 6.0 | 12.0 | 0.00 | 0.00 | 0.00 | 42 | 1012.9 |
| 20260505235103 | 70 | 318 | 6.0 | 14.0 | 0.00 | 0.00 | 0.00 | 43 | 1012.8 |
| 20260505234603 | 69 | 311 | 5.0 | 9.0 | 0.00 | 0.00 | 0.00 | 44 | 1013.0 |
| 20260505234103 | 69 | 312 | 9.0 | 14.0 | 0.00 | 0.00 | 0.00 | 44 | 1013.0 |
| 20260505233603 | 69 | 319 | 7.0 | 12.0 | 0.00 | 0.00 | 0.00 | 46 | 1012.9 |
| 20260505233103 | 69 | 306 | 5.0 | 12.0 | 0.00 | 0.00 | 0.00 | 45 | 1013.0 |
| 20260505232604 | 69 | 342 | 6.0 | 13.0 | 0.00 | 0.00 | 0.00 | 49 | 1013.0 |
| 20260505232103 | 68 | 291 | 7.0 | 12.0 | 0.00 | 0.00 | 0.00 | 49 | 1013.0 |
| 20260505231603 | 68 | 285 | 6.0 | 15.0 | 0.00 | 0.00 | 0.00 | 48 | 1013.2 |
| 20260505231103 | 67 | 294 | 9.0 | 20.0 | 0.00 | 0.00 | 0.00 | 52 | 1013.0 |
| 20260505230603 | 69 | 284 | 12.0 | 17.0 | 0.00 | 0.00 | 0.00 | 50 | 1012.7 |
| 20260505225603 | 68 | 291 | 3.0 | 10.0 | 0.00 | 0.00 | 0.00 | 48 | 1013.0 |
| 20260505225103 | 68 | 297 | 10.0 | 16.0 | 0.00 | 0.00 | 0.00 | 49 | 1013.0 |
| 20260505224603 | 69 | 288 | 5.0 | 10.0 | 0.00 | 0.00 | 0.00 | 48 | 1012.8 |
| 20260505224103 | 69 | 327 | 5.0 | 10.0 | 0.00 | 0.00 | 0.00 | 48 | 1012.9 |
| 20260505223603 | 69 | 319 | 5.0 | 12.0 | 0.00 | 0.00 | 0.00 | 47 | 1013.0 |
| 20260505222103 | 68 | 324 | 5.0 | 14.0 | 0.00 | 0.00 | 0.00 | 49 | 1013.3 |
| 20260505221603 | 69 | 349 | 3.0 | 12.0 | 0.00 | 0.00 | 0.00 | 46 | 1013.0 |
| 20260505221103 | 69 | 314 | 4.0 | 9.0 | 0.00 | 0.00 | 0.00 | 46 | 1013.2 |
| 20260505220602 | 70 | 311 | 5.0 | 12.0 | 0.00 | 0.00 | 0.00 | 47 | 1012.7 |
| 20260505220103 | 70 | 359 | 3.0 | 10.0 | 0.00 | 0.00 | 0.00 | 46 | 1012.8 |
| 20260505215603 | 70 | 316 | 4.0 | 12.0 | 0.00 | 0.00 | 0.00 | 44 | 1013.0 |
| 20260505215103 | 70 | 342 | 3.0 | 10.0 | 0.00 | 0.00 | 0.00 | 48 | 1012.9 |
| 20260505214603 | 70 | 346 | 4.0 | 9.0 | 0.00 | 0.00 | 0.00 | 44 | 1013.1 |
| 20260505214103 | 69 | 340 | 5.0 | 10.0 | 0.00 | 0.00 | 0.00 | 45 | 1013.3 |
| 20260505213103 | 70 | 286 | 2.0 | 12.0 | 0.00 | 0.00 | 0.00 | 46 | 1013.1 |
| 20260505212603 | 70 | 330 | 3.0 | 9.0 | 0.00 | 0.00 | 0.00 | 48 | 1013.2 |
| 20260505212103 | 70 | 344 | 5.0 | 10.0 | 0.00 | 0.00 | 0.00 | 46 | 1013.2 |
| 20260505211603 | 70 | 303 | 3.0 | 10.0 | 0.00 | 0.00 | 0.00 | 46 | 1013.2 |
| 20260505211103 | 70 | 296 | 4.0 | 8.0 | 0.00 | 0.00 | 0.00 | 46 | 1013.2 |
| 20260505210103 | 70 | 336 | 5.0 | 12.0 | 0.00 | 0.00 | 0.00 | 47 | 1013.0 |
| 20260505205603 | 69 | 298 | 4.0 | 10.0 | 0.00 | 0.00 | 0.00 | 49 | 1013.0 |
| 20260505205103 | 70 | 301 | 4.0 | 9.0 | 0.00 | 0.00 | 0.00 | 46 | 1013.1 |
| 20260505204603 | 69 | 329 | 3.0 | 12.0 | 0.00 | 0.00 | 0.00 | 47 | 1013.0 |
| 20260505203603 | 69 | 304 | 6.0 | 12.0 | 0.00 | 0.00 | 0.00 | 45 | 1013.2 |
| 20260505203103 | 70 | 327 | 5.0 | 9.0 | 0.00 | 0.00 | 0.00 | 45 | 1013.1 |
| 20260505202603 | 69 | 319 | 4.0 | 10.0 | 0.00 | 0.00 | 0.00 | 48 | 1013.0 |
| 20260505202103 | 69 | 319 | 3.0 | 10.0 | 0.00 | 0.00 | 0.00 | 44 | 1013.1 |
| 20260505201603 | 69 | 322 | 3.0 | 9.0 | 0.00 | 0.00 | 0.00 | 46 | 1013.0 |
| 20260505201103 | 69 | 8 | 3.0 | 8.0 | 0.00 | 0.00 | 0.00 | 44 | 1013.3 |
| 20260505200604 | 69 | 343 | 2.0 | 7.0 | 0.00 | 0.00 | 0.00 | 47 | 1013.4 |
| 20260505195603 | 68 | 319 | 6.0 | 12.0 | 0.00 | 0.00 | 0.00 | 44 | 1013.5 |
| 20260505195103 | 68 | 304 | 4.0 | 7.0 | 0.00 | 0.00 | 0.00 | 45 | 1013.4 |
| 20260505194603 | 67 | 348 | 2.0 | 7.0 | 0.00 | 0.00 | 0.00 | 49 | 1013.6 |
| 20260505193102 | 66 | 77 | 4.0 | 6.0 | 0.00 | 0.00 | 0.00 | 47 | 1013.7 |
| 20260505192602 | 67 | 48 | 2.0 | 9.0 | 0.00 | 0.00 | 0.00 | 47 | 1013.7 |
| 20260505192103 | 66 | 29 | 1.0 | 5.0 | 0.00 | 0.00 | 0.00 | 50 | 1013.7 |
| 20260505191603 | 65 | 57 | 1.0 | 3.0 | 0.00 | 0.00 | 0.00 | 52 | 1013.9 |
| 20260505190103 | 64 | 66 | 5.0 | 7.0 | 0.00 | 0.00 | 0.00 | 52 | 1013.7 |
| 20260505185603 | 63 | 85 | 3.0 | 7.0 | 0.00 | 0.00 | 0.00 | 52 | 1013.7 |
| 20260505185103 | 63 | 125 | 3.0 | 5.0 | 0.00 | 0.00 | 0.00 | 49 | 1013.8 |
| 20260505184603 | 64 | 91 | 3.0 | 6.0 | 0.00 | 0.00 | 0.00 | 50 | 1013.8 |
| 20260505184103 | 64 | 59 | 4.0 | 9.0 | 0.00 | 0.00 | 0.00 | 52 | 1013.7 |
| 20260505183104 | 63 | 29 | 3.0 | 7.0 | 0.00 | 0.00 | 0.00 | 52 | 1013.8 |
| 20260505182603 | 62 | 21 | 6.0 | 10.0 | 0.00 | 0.00 | 0.00 | 52 | 1014.0 |
| 20260505182104 | 62 | 97 | 5.0 | 7.0 | 0.00 | 0.00 | 0.00 | 54 | 1014.0 |
| 20260505181603 | 62 | 88 | 7.0 | 10.0 | 0.00 | 0.00 | 0.00 | 54 | 1014.0 |
| 20260505181103 | 62 | 71 | 2.0 | 7.0 | 0.00 | 0.00 | 0.00 | 54 | 1014.0 |
| 20260505180602 | 61 | 81 | 4.0 | 8.0 | 0.00 | 0.00 | 0.00 | 56 | 1014.2 |
| 20260505180103 | 61 | 72 | 6.0 | 12.0 | 0.00 | 0.00 | 0.00 | 55 | 1014.2 |
| 20260505175603 | 61 | 90 | 5.0 | 12.0 | 0.00 | 0.00 | 0.00 | 53 | 1014.4 |
| 20260505175102 | 61 | 99 | 5.0 | 12.0 | 0.00 | 0.00 | 0.00 | 53 | 1014.4 |
| 20260505174603 | 60 | 64 | 6.0 | 12.0 | 0.00 | 0.00 | 0.00 | 54 | 1014.4 |
| 20260505174103 | 60 | 81 | 6.0 | 12.0 | 0.00 | 0.00 | 0.00 | 54 | 1014.4 |
| 20260505173102 | 60 | 97 | 5.0 | 8.0 | 0.00 | 0.00 | 0.00 | 57 | 1014.2 |
| 20260505172603 | 60 | 111 | 6.0 | 12.0 | 0.00 | 0.00 | 0.00 | 57 | 1014.3 |
| 20260505171603 | 59 | 102 | 6.0 | 10.0 | 0.00 | 0.00 | 0.00 | 58 | 1014.4 |
| 20260505171103 | 59 | 112 | 6.0 | 9.0 | 0.00 | 0.00 | 0.00 | 58 | 1014.3 |
| 20260505170603 | 59 | 70 | 5.0 | 9.0 | 0.00 | 0.00 | 0.00 | 57 | 1014.0 |
| 20260505170103 | 58 | 119 | 6.0 | 10.0 | 0.00 | 0.00 | 0.00 | 57 | 1014.0 |
| 20260505165103 | 58 | 87 | 7.0 | 12.0 | 0.00 | 0.00 | 0.00 | 56 | 1014.0 |
| 20260505164603 | 58 | 94 | 7.0 | 12.0 | 0.00 | 0.00 | 0.00 | 55 | 1014.0 |
| 20260505164103 | 58 | 81 | 5.0 | 9.0 | 0.00 | 0.00 | 0.00 | 57 | 1014.0 |